Weather History for Hayden, CO

Change the Weather History Date:

Thursday, February 7, 2013

  Actual Average Record
Temperature  
Mean Temperature 17 °F -  
Max Temperature 28 °F 30 °F 55 °F (1963)
Min Temperature 6 °F 5 °F -38 °F (1989)
Degree Days  
Heating Degree Days 48    
Moisture  
Dew Point 11 °F    
Average Humidity 77    
Maximum Humidity 100    
Minimum Humidity 54    
Precipitation  
Precipitation 0.00 in - - ()
Sea Level Pressure  
Sea Level Pressure 30.12 in    
Wind  
Wind Speed 7 mph (SSE)    
Max Wind Speed 14 mph    
Max Gust Speed -    
Visibility 8 miles    
Events      
Averages and records for this station are not official NWS values.
T = Trace of Precipitation, MM = Missing Value Source: NWS Daily Summary

Daily Weather History Graph

Daily Weather History Graph

Search for Another Location

Airport:

Trip Planner

Search our weather history database for the weather conditions in past years. The results will help you decide how hot, cold, wet, or windy it might be!

Date:

Astronomy

Feb. 07, 2013 Rise Set
Actual Time 7:11 AM MST 5:34 PM MST
Civil Twilight 6:43 AM MST 6:03 PM MST
Nautical Twilight 6:11 AM MST 6:35 PM MST
Astronomical Twilight 5:39 AM MST 7:07 PM MST
Moon 4:54 AM MST (2/7) 3:02 PM MST (2/7)
Length of Visible Light 11h 19m
Length of Day
10h 23m
Waning Crescent, 8% of the Moon is Illuminated
Feb 7
Waning Crescent
Feb 10
New
Feb 17
First Quarter
Feb 25
Full
Mar 4
Last Quarter

Hourly Weather History & Observations

Time (MST) Temp. Windchill Dew Point Humidity Pressure Visibility Wind Dir Wind Speed Gust Speed Precip Events Conditions
12:35 AM 17.6 °F 12.3 °F 15.8 °F 93% 30.14 in 10.0 mi NW 3.5 mph - N/A   Clear
12:55 AM 17.6 °F - 14.0 °F 86% 30.14 in 0.5 mi Calm Calm - N/A   Unknown
1:15 AM 15.8 °F - 12.2 °F 86% 30.14 in 0.8 mi Calm Calm - N/A   Overcast
1:35 AM 17.6 °F - 15.8 °F 93% 30.15 in 0.2 mi Calm Calm - N/A   Overcast
1:55 AM 17.6 °F - 15.8 °F 93% 30.15 in 0.5 mi Calm Calm - N/A   Unknown
2:15 AM 17.6 °F - 17.6 °F 100% 30.16 in 0.5 mi Calm Calm - N/A   Unknown
2:35 AM 12.2 °F 2.9 °F 10.4 °F 92% 30.16 in 0.2 mi East 5.8 mph - N/A   Unknown
2:55 AM 12.2 °F 6.1 °F 10.4 °F 92% 30.16 in 0.5 mi ESE 3.5 mph - N/A   Unknown
3:15 AM 12.2 °F 4.3 °F 12.2 °F 100% 30.15 in 0.2 mi East 4.6 mph - N/A   Unknown
3:35 AM 10.4 °F 0.8 °F 10.4 °F 100% 30.15 in 0.5 mi SE 5.8 mph - N/A   Unknown
3:55 AM 12.2 °F 2.9 °F 12.2 °F 100% 30.15 in 3.0 mi ESE 5.8 mph - N/A   Clear
4:15 AM 12.2 °F 1.7 °F 8.6 °F 85% 30.16 in 2.5 mi SE 6.9 mph - N/A   Clear
4:35 AM 12.2 °F 1.7 °F 10.4 °F 92% 30.17 in 10.0 mi SE 6.9 mph - N/A   Scattered Clouds
4:55 AM 12.2 °F -0.2 °F 10.4 °F 92% 30.17 in 0.5 mi SE 9.2 mph - N/A   Mostly Cloudy
5:15 AM 14.0 °F 2.9 °F 12.2 °F 93% 30.18 in 1.0 mi SE 8.1 mph - N/A   Overcast
5:35 AM 12.2 °F 0.7 °F 10.4 °F 92% 30.18 in 10.0 mi SSE 8.1 mph - N/A   Scattered Clouds
5:55 AM 6.8 °F -5.9 °F 5.0 °F 92% 30.18 in 10.0 mi SSE 8.1 mph - N/A   Scattered Clouds
6:15 AM 10.4 °F -5.4 °F 8.6 °F 92% 30.18 in 10.0 mi SSE 13.8 mph - N/A   Partly Cloudy
6:35 AM 8.6 °F -5.5 °F 6.8 °F 92% 30.18 in 10.0 mi South 10.4 mph - N/A   Clear
6:55 AM 10.4 °F -4.8 °F 6.8 °F 85% 30.19 in 10.0 mi South 12.7 mph - N/A   Clear
7:15 AM 8.6 °F -5.5 °F 6.8 °F 92% 30.20 in 10.0 mi South 10.4 mph - N/A   Partly Cloudy
7:35 AM 10.4 °F -3.3 °F 10.4 °F 100% 30.20 in 10.0 mi South 10.4 mph - N/A   Mostly Cloudy
7:55 AM 12.2 °F -1.0 °F 8.6 °F 85% 30.21 in 7.0 mi SSE 10.4 mph - N/A   Overcast
8:15 AM 12.2 °F -0.2 °F 10.4 °F 92% 30.21 in 10.0 mi SSE 9.2 mph - N/A   Overcast
8:35 AM 12.2 °F -0.2 °F 10.4 °F 92% 30.22 in 10.0 mi South 9.2 mph - N/A   Overcast
8:55 AM 12.2 °F -0.2 °F 10.4 °F 92% 30.23 in 10.0 mi South 9.2 mph - N/A   Overcast
9:15 AM 12.2 °F -0.2 °F 10.4 °F 92% 30.23 in 10.0 mi South 9.2 mph - N/A   Mostly Cloudy
9:35 AM 14.0 °F 1.2 °F 12.2 °F 93% 30.22 in 10.0 mi SSE 10.4 mph - N/A   Clear
9:55 AM 15.8 °F 5.1 °F 12.2 °F 86% 30.22 in 10.0 mi South 8.1 mph - N/A   Clear
10:35 AM 17.6 °F 6.4 °F 14.0 °F 86% 30.22 in 10.0 mi SSE 9.2 mph - N/A   Clear
10:55 AM 17.6 °F 5.0 °F 15.8 °F 93% 30.21 in 10.0 mi South 11.5 mph - N/A   Clear
11:35 AM 19.4 °F 6.6 °F 15.8 °F 86% 30.19 in 10.0 mi SSE 12.7 mph - N/A   Clear
11:55 AM 21.2 °F 10.1 °F 15.8 °F 80% 30.18 in 10.0 mi SSE 10.4 mph - N/A   Clear
12:15 PM 23.0 °F 11.7 °F 15.8 °F 74% 30.16 in 10.0 mi SSE 11.5 mph - N/A   Clear
12:35 PM 24.8 °F 14.0 °F 15.8 °F 69% 30.15 in 10.0 mi SSE 11.5 mph - N/A   Clear
12:55 PM 24.8 °F 14.6 °F 15.8 °F 69% 30.14 in 10.0 mi SSE 10.4 mph - N/A   Clear
1:15 PM 26.6 °F 17.5 °F 17.6 °F 69% 30.13 in 10.0 mi SSE 9.2 mph - N/A   Clear
1:35 PM 26.6 °F 16.8 °F 17.6 °F 69% 30.12 in 10.0 mi SSE 10.4 mph - N/A   Clear
1:55 PM 28.4 °F 19.7 °F 17.6 °F 64% 30.11 in 10.0 mi SSE 9.2 mph - N/A   Clear
2:15 PM 26.6 °F 18.2 °F 15.8 °F 64% 30.11 in 10.0 mi SSW 8.1 mph - N/A   Clear
2:35 PM 23.0 °F 15.8 °F 12.2 °F 63% 30.10 in 10.0 mi SW 5.8 mph - N/A   Clear
2:55 PM 23.0 °F 15.8 °F 12.2 °F 63% 30.10 in 10.0 mi SW 5.8 mph - N/A   Clear
3:15 PM 23.0 °F 14.7 °F 12.2 °F 63% 30.09 in 10.0 mi SW 6.9 mph - N/A   Clear
3:35 PM 24.8 °F 16.9 °F 12.2 °F 59% 30.09 in 10.0 mi WSW 6.9 mph - N/A   Clear
3:55 PM 24.8 °F 19.1 °F 14.0 °F 64% 30.08 in 10.0 mi SSW 4.6 mph - N/A   Clear
4:35 PM 28.4 °F 22.2 °F 15.8 °F 59% 30.07 in 10.0 mi SSE 5.8 mph - N/A   Clear
4:55 PM 26.6 °F 22.6 °F 12.2 °F 55% 30.06 in 10.0 mi South 3.5 mph - N/A   Clear
5:15 PM 24.8 °F 14.6 °F 10.4 °F 54% 30.06 in 10.0 mi SSE 10.4 mph - N/A   Clear
5:35 PM 24.8 °F 15.3 °F 12.2 °F 59% 30.05 in 10.0 mi SSE 9.2 mph - N/A   Clear
5:55 PM 21.2 °F 10.1 °F 8.6 °F 58% 30.05 in 10.0 mi SSE 10.4 mph - N/A   Clear
6:15 PM 21.2 °F 10.1 °F 8.6 °F 58% 30.05 in 10.0 mi SSE 10.4 mph - N/A   Clear
6:35 PM 23.0 °F 11.7 °F 10.4 °F 59% 30.04 in 10.0 mi SSE 11.5 mph - N/A   Clear
6:55 PM 21.2 °F 10.1 °F 8.6 °F 58% 30.04 in 10.0 mi SSE 10.4 mph - N/A   Clear
7:15 PM 21.2 °F 10.9 °F 8.6 °F 58% 30.04 in 10.0 mi SE 9.2 mph - N/A   Clear
7:35 PM 23.0 °F 12.4 °F 8.6 °F 54% 30.04 in 10.0 mi SSE 10.4 mph - N/A   Clear
7:55 PM 24.8 °F 12.9 °F 10.4 °F 54% 30.04 in 10.0 mi SE 13.8 mph - N/A   Clear
8:15 PM 21.2 °F 8.9 °F 8.6 °F 58% 30.03 in 10.0 mi SSE 12.7 mph - N/A   Clear
8:35 PM 19.4 °F 7.2 °F 8.6 °F 63% 30.03 in 10.0 mi SSE 11.5 mph - N/A   Clear
9:15 PM 19.4 °F 6.6 °F 8.6 °F 63% 30.02 in 10.0 mi SSE 12.7 mph - N/A   Clear
9:55 PM 19.4 °F 6.6 °F 8.6 °F 63% 30.02 in 10.0 mi SSE 12.7 mph - N/A   Clear
10:15 PM 17.6 °F 5.7 °F 6.8 °F 63% 30.02 in 10.0 mi SE 10.4 mph - N/A   Clear
10:35 PM 17.6 °F 4.3 °F 8.6 °F 68% 30.02 in 10.0 mi SE 12.7 mph - N/A   Clear
10:55 PM 17.6 °F 3.7 °F 6.8 °F 63% 30.02 in 10.0 mi SSE 13.8 mph - N/A   Clear
11:15 PM 14.0 °F 2.0 °F 3.2 °F 62% 30.02 in 10.0 mi South 9.2 mph - N/A   Clear
11:55 PM 12.2 °F -1.8 °F 3.2 °F 67% 30.01 in 10.0 mi SSE 11.5 mph - N/A   Clear